Tracking 35275 objects as of 9-Sep-2026
HD Live streaming from Space Station
objects crossing your sky now

DELTA 1 DEB


10-day predictions


NORAD ID: 7086
Int'l Code: 1973-086CE
Launch date: November 6, 1973
Source: United States (US)
Launch site: AIR FORCE WESTERN TEST RANGE (AFWTR)

Note: This is SATELLITE DEBRIS
Your satellite tracking list
Your tracking list is empty




NASA's NSSDC Master Catalog

Two Line Element Set (TLE):
1  7086U 73086CE  26251.84011978  .00000021  00000-0  49104-3 0  9993
2  7086 102.1613 224.3938 0014298  51.3997  14.4016 12.40984275391377
Source of the keplerian elements: AFSPC